Location: Castifao
(42.5040°N, 9.1124°E)
Time: 14:28:26
(UTC+00:00)

Cosmos 44 - Pass Details

Date: 23 January 2020
Orbit: 595 x 767 km, 65.1° (Epoch: 23 February)

Event Time Altitude Azimuth Distance (km) Brightness Sun altitude
Rises 17:40:27 0° 208° (SSW) 2,974 7.2 -13.9°
Reaches altitude 10° 17:42:48 10° 207° (SSW) 2,040 6.3 -14.3°
Maximum altitude 17:47:23 79° 122° (ESE) 641 3.0 -15.2°
Enters shadow 17:50:31 19° 37° (NE) 1,459 4.5 -15.7°
